Regional Weather Roundup
Issued by NWS

Home | Current Version | Previous Version | Graphics & Text | Print | Product List | Glossary On
Versions: 1 2 3 4 5 6 7 8 9 10 11 12 13 14 15 16 17 18 19 20 21 22 23 24 25 26 27 28 29 30 31 32 33 34 35 36 37 38 39 40 41 42 43 44 45 46 47 48 49 50
000
ASUS43 KFSD 040110
RWRSD

WEATHER ROUNDUP FOR SOUTH DAKOTA
NATIONAL WEATHER SERVICE SIOUX FALLS SD
800 PM CDT MON AUG 03 2015

NOTE: "FAIR" INDICATES FEW OR NO CLOUDS BELOW 12,000 FEET WITH NO
SIGNIFICANT WEATHER AND/OR OBSTRUCTIONS TO VISIBILITY.


SDZ001>005-009-010-012>017-040200-
NORTHWEST AND NORTH CENTRAL SOUTH DAKOTA

CITY           SKY/WX    TMP DP  RH WIND       PRES   REMARKS
BUFFALO          N/A     80  52  37 SE10      29.90R
FAITH            N/A     82  50  32 E7        29.95R
MOBRIDGE       SUNNY     81  52  36 E6        29.92S
$$

SDZ012>016-024>037-041>051-057-063-072>074-040200-
SOUTHWEST AND SOUTH CENTRAL SOUTH DAKOTA

CITY           SKY/WX    TMP DP  RH WIND       PRES   REMARKS
RAPID CTY ARPT PTSUNNY   78  62  57 SE9       29.95R
PIERRE         CLEAR     81  56  42 E6        29.91S
CUSTER         PTSUNNY   71  57  61 E7        30.10S
ELLSWORTH AFB  PTSUNNY   80  61  50 SE13      29.95R
PHILIP         PTSUNNY   79  62  56 E8        29.92S
PINE RIDGE     PTSUNNY   84  62  47 E10       29.92S
WINNER         FAIR      80  57  45 E10       29.95S
$$

SDZ004>011-016>023-039-040-040200-
NORTHEAST SOUTH DAKOTA

CITY           SKY/WX    TMP DP  RH WIND       PRES   REMARKS
ABERDEEN       CLEAR     76  55  48 NE8       29.93F
WATERTOWN      CLEAR     73  53  49 NE7       29.96S
BROOKINGS      CLEAR     73  55  53 N5        29.97S
SISSETON         N/A     74  58  57 N3        29.93S
$$

SDZ017-020-022-023-036>040-048>070-040200-
SOUTHEAST SOUTH DAKOTA

CITY           SKY/WX    TMP DP  RH WIND       PRES   REMARKS
SIOUX FALLS    PTCLDY    78  62  57 NW5       29.95R
HURON          CLEAR     78  57  48 NE5       29.94R
CHAMBERLAIN    PTCLDY    75  62  63 SE5       29.95R
MITCHELL       CLEAR     77  62  59 NE7       29.94S
YANKTON        PTCLDY    77  63  61 E5        29.93R
$$

ABBREVIATIONS USED IN REMARKS
   TC - TEMPERATURE IN CELSIUS
  WCI - WIND CHILL INDEX
   HX - HEAT INDEX
  VSB - VISIBILITY




USA.gov is the U.S. government's official web portal to all federal, state and local government web resources and services.